Weather History for North Platte, NE

Change the Weather History Date:

Tuesday, November 16, 2010

  Actual Average Record
Temperature  
Mean Temperature 36 °F 35 °F  
Max Temperature 51 °F 50 °F 80 °F (1941)
Min Temperature 20 °F 21 °F -8 °F (1875)
Degree Days  
Heating Degree Days 29 30  
Month to date heating degree days 381 416  
Since 1 July heating degree days 885 1085  
Cooling Degree Days 0 0  
Month to date cooling degree days 0 0  
Year to date cooling degree days 854 768  
Moisture  
Dew Point 33 °F    
Average Humidity 75    
Maximum Humidity 100    
Minimum Humidity 50    
Precipitation  
Precipitation 0.22 in 0.02 in 0.59 in (1991)
Month to date precipitation 0.55 0.40  
Year to date precipitation 22.71 19.58  
Snow  
Snow 0.00 in 0.10 in 8.90 in (1886)
Month to date snowfall T 1.9  
Since 1 July snowfall T 4.2  
Since 1 September snowfall T 4.2  
Snow Depth 0.00 in    
Sea Level Pressure  
Sea Level Pressure 29.71 in    
Wind  
Wind Speed 5 mph (SSE)    
Max Wind Speed 16 mph    
Max Gust Speed 22 mph    
Visibility 9 miles    
Events Rain    
T = Trace of Precipitation, MM = Missing Value Source: NWS Daily Summary

Daily Weather History Graph

Daily Weather History Graph

Search for Another Location

Airport:

Trip Planner

Search our weather history database for the weather conditions in past years. The results will help you decide how hot, cold, wet, or windy it might be!

Date:

Astronomy

Nov. 16, 2010 Rise Set
Actual Time 7:31 AM CST 5:22 PM CST
Civil Twilight 7:02 AM CST 5:52 PM CST
Nautical Twilight 6:28 AM CST 6:25 PM CST
Astronomical Twilight 5:56 AM CST 6:58 PM CST
Moon 2:32 PM CST (11/16) 2:32 AM CST (11/16)
Length of Visible Light 10h 50m
Length of Day
9h 51m
Waxing Gibbous, 77% of the Moon is Illuminated
Nov 16
Waxing Gibbous
Nov 21
Full
Nov 28
Last Quarter
Dec 5
New
Dec 13
First Quarter

Hourly Weather History & Observations

Time (CST) Temp. Windchill Dew Point Humidity Pressure Visibility Wind Dir Wind Speed Gust Speed Precip Events Conditions
12:53 AM 30.9 °F 26.2 °F 30.0 °F 96% 29.86 in 10.0 mi NW 4.6 mph - N/A   Overcast
1:53 AM 28.9 °F 25.2 °F 28.0 °F 96% 29.84 in 10.0 mi NW 3.5 mph - N/A   Overcast
2:53 AM 27.0 °F 21.6 °F 26.1 °F 96% 29.84 in 10.0 mi WNW 4.6 mph - N/A   Clear
3:53 AM 23.0 °F 18.4 °F 21.9 °F 96% 29.85 in 3.0 mi NW 3.5 mph - N/A   Clear
4:53 AM 21.9 °F 15.7 °F 21.0 °F 96% 29.84 in 10.0 mi NW 4.6 mph - N/A   Clear
5:53 AM 21.0 °F 16.2 °F 19.0 °F 92% 29.83 in 10.0 mi WNW 3.5 mph - N/A   Clear
6:53 AM 19.9 °F 14.9 °F 19.0 °F 96% 29.82 in 10.0 mi NW 3.5 mph - N/A   Partly Cloudy
7:53 AM 21.9 °F - 19.9 °F 92% 29.79 in 10.0 mi Calm Calm - N/A   Clear
8:53 AM 28.9 °F - 27.0 °F 92% 29.77 in 10.0 mi Calm Calm - N/A   Clear
9:53 AM 35.1 °F - 30.9 °F 85% 29.75 in 10.0 mi Calm Calm - N/A   Clear
10:53 AM 43.0 °F - 34.0 °F 71% 29.72 in 10.0 mi Calm Calm - N/A   Clear
11:53 AM 46.9 °F - 33.1 °F 59% 29.65 in 10.0 mi South 6.9 mph - N/A   Clear
12:53 PM 50.0 °F - 32.0 °F 50% 29.60 in 10.0 mi SW 9.2 mph - N/A   Clear
1:53 PM 48.0 °F - 33.1 °F 56% 29.59 in 10.0 mi South 12.7 mph - N/A   Mostly Cloudy
2:53 PM 48.0 °F - 33.1 °F 56% 29.59 in 10.0 mi South 11.5 mph 20.7 mph N/A   Mostly Cloudy
3:20 PM 44.6 °F 38.4 °F 35.6 °F 71% 29.57 in 10.0 mi WSW 12.7 mph 20.7 mph 0.00 in Rain Light Rain
3:50 PM 44.6 °F 42.2 °F 37.4 °F 76% 29.57 in 10.0 mi South 4.6 mph - 0.02 in Rain Light Rain
3:53 PM 43.0 °F 40.3 °F 37.9 °F 82% 29.62 in 10.0 mi South 4.6 mph - 0.02 in Rain Light Rain
4:16 PM 42.8 °F 39.3 °F 37.4 °F 81% 29.57 in 10.0 mi SSW 5.8 mph - 0.01 in Rain Light Rain
4:53 PM 42.1 °F 39.2 °F 39.0 °F 89% 29.62 in 10.0 mi ESE 4.6 mph - 0.02 in Rain Light Rain
5:53 PM 41.0 °F 37.1 °F 39.0 °F 93% 29.65 in 10.0 mi ESE 5.8 mph - 0.01 in   Overcast
6:18 PM 41.0 °F 38.0 °F 39.2 °F 93% 29.59 in 9.0 mi SE 4.6 mph - 0.00 in Rain Light Rain
6:53 PM 39.9 °F 35.8 °F 39.0 °F 97% 29.67 in 10.0 mi ESE 5.8 mph - 0.02 in Rain Light Rain
7:16 PM 39.2 °F 34.2 °F 39.2 °F 100% 29.61 in 9.0 mi ESE 6.9 mph - 0.01 in Rain Light Rain
7:53 PM 39.9 °F 35.1 °F 39.0 °F 97% 29.69 in 7.0 mi ESE 6.9 mph - 0.02 in Rain Light Rain
8:53 PM 39.9 °F 35.1 °F 39.0 °F 97% 29.71 in 6.0 mi East 6.9 mph - 0.04 in Rain Light Rain
9:03 PM 39.2 °F 34.2 °F 39.2 °F 100% 29.66 in 6.0 mi ESE 6.9 mph - 0.01 in Rain Light Rain
9:53 PM 39.9 °F 34.5 °F 39.0 °F 97% 29.73 in 6.0 mi East 8.1 mph - 0.04 in Rain Light Rain
10:53 PM 39.9 °F 33.9 °F 39.0 °F 97% 29.75 in 10.0 mi East 9.2 mph - 0.03 in Rain Light Rain
11:27 PM 39.2 °F 33.0 °F 37.4 °F 93% 29.75 in 10.0 mi East 9.2 mph - 0.02 in Rain Light Rain
11:53 PM 39.0 °F 32.3 °F 37.0 °F 93% 29.79 in 10.0 mi East 10.4 mph - 0.02 in   Overcast